[[{"header":{"parameterUnit":"m.s-1","parameterCategory":2,"la1":30.2991,"la2":30.254,"lo1":-89.0895,"lo2":-89.0444,"dy":0.0017,"dx":0.0017,"nx":28,"ny":28,"refTime":"2025-03-18T09:00:00:Z","depth":"0","parameterNumber":2,"parameterNumberName":"U-component_of_CURRENTS"},"data":[0,0,0,0,0,0,0,0,0,0,0,0,0,0,0,0,0,0,0,0,0,0,0,0,0,0,0,0,0,0,0,0,0,0,0,0,0,0,0,0,0,0,0,0,0,0,0,0,0,0,0,0,0,0,0,0,0,0,0.2637,0.2637,0,0.2616,0.2615,0.2615,0.2582,0.2582,0.2582,0.2582,0.2575,0.2575,0.2575,0,0,0,0,0,0,0,0,0,0,0,0,0,0.2604,0.2605,0.2637,0.2637,0.2637,0.2616,0.2615,0.2615,0.2582,0.2582,0.2582,0.2582,0.2575,0.2575,0.2575,0,0,0,0,0,0,0,0,0,0,0,0,0,0.2599,0.2605,0.2637,0.2623,0.2622,0.2616,0.2615,0.2614,0.2582,0.2582,0.2582,0.2582,0.2575,0.2575,0.2575,0.2576,0,0,0.2574,0.2574,0,0,0,0,0,0,0,0,0.2599,0.26,0.2624,0.2624,0.2623,0.2607,0.2602,0.2604,0.2582,0.2591,0.2582,0.2582,0.2591,0.2589,0.2577,0.2576,0.2575,0.2574,0.2574,0.2574,0.2574,0,0,0,0,0,0,0,0.26,0.26,0.2623,0.2625,0.2624,0.2603,0.2602,0.2601,0.2588,0.259,0.2589,0.2596,0.2589,0.2577,0.2577,0.2575,0.2574,0.2574,0.2574,0.2574,0.2616,0.2617,0,0,0,0,0,0,0.2617,0.2601,0.2624,0.2623,0.2617,0.2604,0.2603,0.2607,0.2587,0.2586,0.2596,0.2595,0.2578,0.2577,0.2577,0.2678,0.2574,0.2574,0.2574,0.2614,0.2616,0.2617,0,0,0,0,0,0,0.2616,0.2619,0.2624,0.2616,0.2616,0.2606,0.261,0.2607,0.2608,0.2593,0.259,0.2603,0.2578,0.2577,0.2573,0.2673,0.2574,0.2574,0.2613,0.2615,0.2616,0.2815,0,0,0,0,0,0,0.2615,0.2618,0.2625,0.2617,0.2617,0.2647,0.2611,0.2607,0.2614,0.2612,0.2598,0.2596,0.2578,0.2574,0.2573,0.2671,0.2574,0.2611,0.2614,0.2616,0.2807,0.2823,0.2837,0,0,0,0,0,0.2614,0.2628,0.2625,0.2629,0.2628,0.2649,0.2647,0.2634,0.2615,0.263,0.2599,0.2597,0.2589,0.2573,0.2573,0.2674,0.261,0.2613,0.2616,0.28,0.282,0.2837,0,0,0,0,0,0,0.2615,0.2626,0.2623,0.2639,0.2656,0.2646,0.2654,0.2646,0.2631,0.2622,0.2597,0.2594,0.2644,0.2602,0.2586,0.2684,0.2606,0.2609,0.2747,0.2765,0.278,0.2764,0.2573,0,0,0,0,0,0.2621,0.2633,0.2647,0.2661,0.2671,0.2664,0.2669,0.2665,0.2654,0.2648,0.2636,0.2623,0.2653,0.2659,0.2661,0.2697,0.2666,0.276,0.2776,0.2789,0.2771,0.2802,0.282,0.2626,0.2626,0.2626,0,0,0.2624,0.2633,0.2639,0.2663,0.2666,0.2685,0.2665,0.2684,0.2715,0.265,0.2674,0.2679,0.267,0.2727,0.2747,0.2707,0.2833,0.2793,0.2806,0.2778,0.2807,0.2827,0.2844,0.2628,0.2628,0.2627,0,0,0.2645,0.2649,0.2671,0.2679,0.2702,0.2708,0.2722,0.2726,0.2748,0.277,0.2755,0.2802,0.2802,0.2842,0.2858,0.2947,0.2917,0.2957,0.3028,0.3063,0.308,0.3094,0.3112,0.3126,0.2962,0.2963,0.2963,0,0.2651,0.2687,0.2682,0.27,0.2713,0.2723,0.2751,0.2779,0.2783,0.2816,0.2797,0.2846,0.287,0.296,0.3006,0.2996,0.2977,0.2977,0.3088,0.3101,0.3112,0.3126,0.314,0.2973,0.2972,0.2971,0.297,0,0.2679,0.2714,0.2729,0.2757,0.2759,0.2798,0.2825,0.2869,0.2895,0.2914,0.3001,0.3017,0.3039,0.3097,0.3087,0.3198,0.315,0.3116,0.3054,0.3145,0.3153,0.3164,0.2987,0.2983,0.298,0.2978,0,0,0.2699,0.275,0.2757,0.2775,0.2801,0.2803,0.2883,0.2962,0.3013,0.3053,0.3117,0.3222,0.3211,0.3224,0.3242,0.3293,0.3413,0.3242,0.3239,0.3282,0.3468,0.3469,0.3479,0.3395,0.3397,0.3399,0.3455,0,0.2747,0.2803,0.2808,0.2851,0.2883,0.2907,0.2961,0.3011,0.308,0.3141,0.3214,0.3262,0.3267,0.3292,0.3352,0.3388,0.3441,0.3399,0.335,0.3349,0.3358,0.3492,0.3589,0.3649,0.3465,0.3466,0.3467,0,0.2775,0.2821,0.2881,0.2915,0.2924,0.2945,0.3026,0.3067,0.317,0.3223,0.3288,0.3301,0.3404,0.3376,0.348,0.3443,0.3464,0.3489,0.3491,0.3417,0.3368,0.3518,0.3674,0.3759,0.3482,0.3481,0.348,0,0.2782,0.2856,0.2915,0.2922,0.2966,0.3008,0.3027,0.3103,0.3175,0.3259,0.3328,0.338,0.3445,0.3467,0.3528,0.35,0.3616,0.3581,0.3598,0.3597,0.363,0.3628,0.3877,0.3644,0.3644,0.3644,0.3643,0,0.2821,0.2858,0.2932,0.2952,0.3012,0.2998,0.3077,0.3124,0.322,0.33,0.3346,0.3437,0.3473,0.354,0.3546,0.3617,0.3631,0.3632,0.3627,0.3702,0.3706,0.3732,0.3724,0.3646,0.3645,0.3645,0.3644,0,0.2797,0.2865,0.2915,0.2987,0.3017,0.3026,0.3111,0.3162,0.326,0.3378,0.3407,0.352,0.3595,0.3622,0.3679,0.3678,0.3687,0.372,0.3799,0.3802,0.3875,0.3871,0.3732,0.3621,0.3751,0.3752,0.3752,0,0.2791,0.2831,0.2914,0.2943,0.2986,0.3039,0.308,0.3175,0.325,0.3435,0.349,0.3608,0.3694,0.378,0.3801,0.3816,0.3723,0.3881,0.3857,0.3926,0.3918,0.3663,0.3559,0.3993,0.3995,0.3997,0.3999,0,0.277,0.2802,0.2834,0.2913,0.2966,0.3017,0.3099,0.3187,0.3301,0.3428,0.356,0.3641,0.38,0.3881,0.3924,0.3933,0.3831,0.3919,0.3999,0.4142,0.3871,0.3747,0.3886,0.4016,0.4015,0.4013,0.4012,0.4012,0.2729,0.274,0.2793,0.2848,0.2905,0.2954,0.298,0.3101,0.3209,0.3383,0.3534,0.3705,0.3999,0.4092,0.4045,0.4183,0.3931,0.4205,0.4199,0.3932,0.3819,0.3977,0.4085,0.4083,0.4082,0.4081,0.408,0,0.2657,0.268,0.2725,0.2775,0.2791,0.2856,0.2951,0.2978,0.3068,0.3341,0.3482,0.3901,0.4133,0.4314,0.4581,0.4555,0.4267,0.4491,0.4256,0.4135,0.4372,0.439,0.456,0.456,0.456,0.456,0.456,0.456,0.262,0.2619,0.2645,0.2651,0.2681,0.2676,0.2703,0.2773,0.2959,0.3227,0.3509,0.3755,0.4331,0.4909,0.5095,0.4953,0.4638,0.4487,0.4295,0.468,0.4655,0.463,0.4653,0.4875,0.4876,0.3973,0.3968,0.3964]},{"header":{"parameterUnit":"m.s-1","parameterCategory":2,"la1":30.2991,"la2":30.254,"lo1":-89.0895,"lo2":-89.0444,"dy":0.0017,"dx":0.0017,"nx":28,"ny":28,"refTime":"2025-03-18T09:00:00:Z","depth":"0","parameterNumber":3,"parameterNumberName":"V-component_of_CURRENTS"},"data":[0,0,0,0,0,0,0,0,0,0,0,0,0,0,0,0,0,0,0,0,0,0,0,0,0,0,0,0,0,0,0,0,0,0,0,0,0,0,0,0,0,0,0,0,0,0,0,0,0,0,0,0,0,0,0,0,0,0,-0.0441,-0.0442,0,-0.0519,-0.052,-0.0521,-0.0563,-0.0563,-0.0563,-0.0563,-0.0649,-0.0651,-0.0653,0,0,0,0,0,0,0,0,0,0,0,0,0,-0.0382,-0.0382,-0.0441,-0.0442,-0.0443,-0.0519,-0.052,-0.0521,-0.0563,-0.0563,-0.0563,-0.0563,-0.0648,-0.0651,-0.0653,0,0,0,0,0,0,0,0,0,0,0,0,0,-0.0427,-0.0382,-0.0441,-0.0474,-0.0478,-0.0519,-0.052,-0.0521,-0.0563,-0.0563,-0.0563,-0.0564,-0.0647,-0.065,-0.0653,-0.0667,0,0,-0.0663,-0.0664,0,0,0,0,0,0,0,0,-0.0424,-0.0429,-0.0468,-0.0472,-0.0476,-0.0533,-0.0531,-0.0571,-0.0563,-0.0529,-0.0563,-0.0564,-0.0611,-0.0617,-0.0629,-0.0671,-0.0674,-0.0663,-0.0665,-0.0666,-0.0667,0,0,0,0,0,0,0,-0.0421,-0.0426,-0.0471,-0.0469,-0.0474,-0.0504,-0.051,-0.0539,-0.0567,-0.0532,-0.0536,-0.0546,-0.0613,-0.0626,-0.0632,-0.0676,-0.0663,-0.0666,-0.0668,-0.0669,-0.0667,-0.0665,0,0,0,0,0,0,-0.0411,-0.0423,-0.0468,-0.0473,-0.0452,-0.0505,-0.0511,-0.0513,-0.0566,-0.0575,-0.0546,-0.0548,-0.0621,-0.0628,-0.0635,-0.0618,-0.0666,-0.0669,-0.0671,-0.0669,-0.0667,-0.0665,0,0,0,0,0,0,-0.0409,-0.0414,-0.0465,-0.0451,-0.046,-0.0505,-0.0507,-0.0515,-0.0531,-0.0577,-0.0586,-0.0555,-0.0621,-0.0631,-0.0635,-0.0623,-0.0671,-0.0674,-0.0671,-0.0668,-0.0666,-0.0607,0,0,0,0,0,0,-0.0407,-0.0412,-0.0408,-0.045,-0.0461,-0.0481,-0.0507,-0.0516,-0.0538,-0.0541,-0.0587,-0.0596,-0.0622,-0.063,-0.0638,-0.0628,-0.0676,-0.0674,-0.067,-0.0667,-0.0612,-0.0603,-0.0595,0,0,0,0,0,-0.0404,-0.0393,-0.0407,-0.0413,-0.0454,-0.0481,-0.0489,-0.0521,-0.0537,-0.0538,-0.0554,-0.0594,-0.0613,-0.0631,-0.0641,-0.0632,-0.0676,-0.0671,-0.0667,-0.0615,-0.0604,-0.0595,0,0,0,0,0,0,-0.0365,-0.0397,-0.0414,-0.0413,-0.0443,-0.0488,-0.0493,-0.0519,-0.0535,-0.0536,-0.0578,-0.0586,-0.0592,-0.0608,-0.0627,-0.0615,-0.0648,-0.0646,-0.0605,-0.0596,-0.0588,-0.0559,-0.0679,0,0,0,0,0,-0.0354,-0.0353,-0.0394,-0.0393,-0.0407,-0.0451,-0.0467,-0.0489,-0.0513,-0.0522,-0.0547,-0.0564,-0.0581,-0.0584,-0.0607,-0.0599,-0.0625,-0.0594,-0.0585,-0.0579,-0.0558,-0.0577,-0.0569,-0.065,-0.065,-0.065,0,0,-0.034,-0.0357,-0.0357,-0.0385,-0.0411,-0.0403,-0.046,-0.0479,-0.0467,-0.0528,-0.0511,-0.0549,-0.0575,-0.0568,-0.057,-0.0579,-0.057,-0.0573,-0.0567,-0.055,-0.0572,-0.0564,-0.0558,-0.0647,-0.0648,-0.0648,0,0,-0.0306,-0.0325,-0.0313,-0.0323,-0.0356,-0.0376,-0.0379,-0.0417,-0.0432,-0.0435,-0.0466,-0.0482,-0.051,-0.0514,-0.0525,-0.0479,-0.0538,-0.0489,-0.0417,-0.0436,-0.043,-0.0425,-0.0461,-0.046,-0.0472,-0.0471,-0.0471,0,-0.0288,-0.0277,-0.0315,-0.0298,-0.0289,-0.0354,-0.0325,-0.0349,-0.0378,-0.0373,-0.0418,-0.0438,-0.0481,-0.0452,-0.0441,-0.0464,-0.0487,-0.046,-0.0427,-0.0423,-0.0419,-0.0457,-0.0456,-0.0468,-0.0468,-0.0469,-0.0469,0,-0.0238,-0.0229,-0.0222,-0.021,-0.0199,-0.0196,-0.0217,-0.0225,-0.0259,-0.0274,-0.0279,-0.0336,-0.0341,-0.0364,-0.0398,-0.0373,-0.0406,-0.0431,-0.0459,-0.0408,-0.0451,-0.0451,-0.0463,-0.0465,-0.0466,-0.0466,0,0,-0.0201,-0.0191,-0.0186,-0.0157,-0.0152,-0.0135,-0.0113,-0.0106,-0.0084,-0.0134,-0.0105,-0.0158,-0.0198,-0.0209,-0.0257,-0.0275,-0.0297,-0.0333,-0.0336,-0.0379,-0.035,-0.0376,-0.038,-0.0321,-0.032,-0.032,-0.0398,0,-0.0157,-0.0103,-0.01,-0.0027,0.0003,-0.0014,0.0026,0.0034,0.0005,0.0015,-0.0049,-0.0053,-0.0134,-0.0151,-0.0178,-0.0268,-0.0292,-0.0274,-0.0382,-0.0385,-0.0424,-0.0378,-0.039,-0.046,-0.0399,-0.0399,-0.0399,0,-0.0102,-0.0073,-0.0001,0.007,0.0086,0.0125,0.0184,0.0212,0.0206,0.0177,0.0158,0.0102,0.0069,-0.0022,-0.0129,-0.0115,-0.0219,-0.0297,-0.0302,-0.0341,-0.0411,-0.0496,-0.0463,-0.0704,-0.04,-0.04,-0.04,0,-0.0043,0.001,0.0073,0.0098,0.0159,0.0193,0.023,0.0258,0.0286,0.0277,0.0284,0.0233,0.0196,0.008,-0.0093,-0.0112,-0.0224,-0.0273,-0.0388,-0.0393,-0.0429,-0.0437,-0.0645,-0.0341,-0.034,-0.034,-0.034,0,0.0014,0.0069,0.0095,0.0134,0.0226,0.0261,0.0341,0.0359,0.0381,0.0454,0.0375,0.0397,0.0217,0.0128,-0.0038,-0.0208,-0.0184,-0.0362,-0.0403,-0.0409,-0.0414,-0.0645,-0.0805,-0.0343,-0.0343,-0.0342,-0.0342,0,0.0073,0.0083,0.0165,0.0226,0.0252,0.0325,0.0402,0.0459,0.0468,0.0551,0.0553,0.0506,0.0398,0.0211,0.0015,-0.0133,-0.0463,-0.0371,-0.0374,-0.0414,-0.074,-0.0894,-0.1143,-0.1318,-0.0503,-0.0504,-0.0505,0,0.0108,0.0147,0.0233,0.0291,0.0314,0.0397,0.0464,0.0492,0.0562,0.0633,0.0697,0.0613,0.0601,0.03,0.0005,-0.0271,-0.0519,-0.0468,-0.0502,-0.0747,-0.095,-0.1057,-0.1196,-0.0542,-0.0543,-0.0544,-0.0544,0,0.018,0.0202,0.0269,0.0375,0.0449,0.0545,0.0641,0.0702,0.0776,0.0843,0.0944,0.0937,0.0658,0.0401,0.0006,-0.0218,-0.0688,-0.0493,-0.0744,-0.0986,-0.112,-0.131,-0.0523,-0.0552,-0.0551,-0.055,-0.055,-0.055,0.0239,0.0295,0.0375,0.0485,0.0581,0.0716,0.0817,0.0927,0.1058,0.1227,0.117,0.1252,0.0816,0.0283,-0.0098,-0.0747,-0.0777,-0.0916,-0.1081,-0.1163,-0.1341,-0.0571,-0.0645,-0.0645,-0.0645,-0.0644,-0.0644,0,0.0325,0.0386,0.0489,0.0626,0.0753,0.0783,0.0965,0.1089,0.1285,0.1447,0.1534,0.1411,0.0818,0.0208,-0.0654,-0.1175,-0.1434,-0.1494,-0.1667,-0.1782,-0.1081,-0.109,-0.1266,-0.1266,-0.1266,-0.1266,-0.1265,-0.1265,0.0375,0.0488,0.0536,0.0751,0.0857,0.1046,0.1167,0.1364,0.1537,0.1781,0.1888,0.1898,0.1481,-0.0217,-0.1406,-0.1729,-0.2188,-0.2278,-0.2517,-0.2043,-0.2002,-0.1962,-0.2006,-0.2371,-0.2373,-0.3152,-0.316,-0.3166]}],[{"header":{"parameterUnit":"m.s-1","parameterCategory":2,"la1":30.2991,"la2":30.254,"lo1":-89.0895,"lo2":-89.0444,"dy":0.0017,"dx":0.0017,"nx":28,"ny":28,"refTime":"2025-03-18T09:00:00:Z","depth":"2","parameterNumber":2,"parameterNumberName":"U-component_of_CURRENTS"},"data":[0,0,0,0,0,0,0,0,0,0,0,0,0,0,0,0,0,0,0,0,0,0,0,0,0,0,0,0,0,0,0,0,0,0,0,0,0,0,0,0,0,0,0,0,0,0,0,0,0,0,0,0,0,0,0,0,0,0,0.2605,0.2605,0,0.2582,0.2582,0.2581,0.2548,0.2548,0.2548,0.2548,0.2543,0.2543,0.2542,0,0,0,0,0,0,0,0,0,0,0,0,0,0.2574,0.2574,0.2605,0.2605,0.2606,0.2583,0.2582,0.2581,0.2548,0.2548,0.2548,0.2548,0.2543,0.2543,0.2542,0,0,0,0,0,0,0,0,0,0,0,0,0,0.2567,0.2574,0.2605,0.2591,0.259,0.2583,0.2582,0.2581,0.2548,0.2548,0.2548,0.2547,0.2543,0.2543,0.2542,0.2543,0,0,0.2542,0.2542,0,0,0,0,0,0,0,0,0.2568,0.2568,0.2593,0.2592,0.2591,0.2573,0.2569,0.2571,0.2548,0.2557,0.2548,0.2547,0.2558,0.2557,0.2544,0.2542,0.2542,0.2542,0.2542,0.2542,0.2542,0,0,0,0,0,0,0,0.2568,0.2568,0.259,0.2593,0.2592,0.257,0.2569,0.2568,0.2554,0.2556,0.2555,0.2562,0.2557,0.2544,0.2544,0.2542,0.2542,0.2542,0.2542,0.2542,0.2576,0.2577,0,0,0,0,0,0,0.2586,0.2569,0.2591,0.259,0.2585,0.2571,0.257,0.2574,0.2554,0.2552,0.2563,0.2561,0.2544,0.2544,0.2544,0.2645,0.2542,0.2542,0.2542,0.2575,0.2577,0.2578,0,0,0,0,0,0,0.2585,0.2588,0.2592,0.2584,0.2584,0.2573,0.2577,0.2574,0.2574,0.2559,0.2557,0.257,0.2544,0.2544,0.2534,0.264,0.2542,0.2542,0.2574,0.2576,0.2577,0.2781,0,0,0,0,0,0,0.2584,0.2587,0.2594,0.2585,0.2585,0.2613,0.2578,0.2573,0.2581,0.2579,0.2565,0.2563,0.2544,0.2534,0.2533,0.2638,0.2541,0.2573,0.2575,0.2577,0.2773,0.279,0.2804,0,0,0,0,0,0.2583,0.2596,0.2594,0.2597,0.2595,0.2615,0.2613,0.26,0.2582,0.2596,0.256,0.2564,0.2547,0.2533,0.2533,0.2641,0.2572,0.2574,0.2577,0.2767,0.2786,0.2803,0,0,0,0,0,0,0.2584,0.2595,0.2592,0.2608,0.2623,0.2612,0.262,0.2611,0.2593,0.2584,0.2558,0.2555,0.26,0.2561,0.2546,0.2647,0.2569,0.2571,0.2714,0.2732,0.2747,0.2732,0.2541,0,0,0,0,0,0.259,0.2603,0.2615,0.2629,0.2639,0.2631,0.2635,0.2631,0.2617,0.2609,0.2595,0.2581,0.2607,0.2617,0.2613,0.2653,0.2621,0.2721,0.2736,0.275,0.2732,0.2761,0.2779,0.2585,0.2585,0.2585,0,0,0.2594,0.2602,0.2608,0.2631,0.2633,0.265,0.2632,0.265,0.2678,0.2613,0.263,0.2632,0.2622,0.2678,0.2698,0.2663,0.2793,0.2753,0.2766,0.2739,0.2765,0.2784,0.2802,0.2587,0.2587,0.2586,0,0,0.2614,0.2618,0.264,0.2646,0.2667,0.2672,0.2686,0.2688,0.2709,0.2724,0.2707,0.2753,0.2748,0.2792,0.281,0.2895,0.287,0.2906,0.2987,0.3019,0.3036,0.305,0.307,0.3085,0.292,0.292,0.292,0,0.262,0.2656,0.2651,0.2665,0.2676,0.2687,0.2713,0.2739,0.2738,0.277,0.2748,0.279,0.2816,0.2911,0.2958,0.2945,0.2925,0.2938,0.3044,0.3057,0.3069,0.3085,0.3098,0.293,0.2929,0.2928,0.2927,0,0.2647,0.268,0.2694,0.2718,0.2718,0.2756,0.278,0.2825,0.2849,0.2864,0.2947,0.2962,0.2982,0.3045,0.3037,0.3154,0.3104,0.3067,0.3013,0.3102,0.3112,0.3123,0.2945,0.2941,0.2938,0.2935,0,0,0.2668,0.2716,0.2722,0.2737,0.2759,0.2757,0.2838,0.2917,0.2968,0.3003,0.3065,0.317,0.3159,0.3174,0.3198,0.3254,0.3377,0.3202,0.3199,0.3247,0.3428,0.3427,0.3437,0.3354,0.3356,0.3358,0.3418,0,0.2716,0.2768,0.277,0.2807,0.2837,0.2861,0.2915,0.2964,0.303,0.3088,0.3164,0.3207,0.3215,0.3244,0.3308,0.3348,0.3404,0.3362,0.3309,0.3307,0.3317,0.345,0.3084,0.3109,0.3428,0.3429,0.343,0,0.2742,0.2787,0.2844,0.2871,0.2879,0.2897,0.298,0.3018,0.3121,0.3174,0.3238,0.3245,0.3358,0.3328,0.344,0.3401,0.3424,0.3451,0.3453,0.3375,0.3325,0.3059,0.3114,0.3446,0.3445,0.3444,0.3443,0,0.2752,0.282,0.2878,0.2881,0.292,0.2965,0.2982,0.3058,0.3129,0.3212,0.3281,0.3333,0.34,0.3422,0.3487,0.3459,0.3578,0.3542,0.3557,0.3556,0.3193,0.3157,0.3602,0.3602,0.3602,0.3602,0.3602,0,0.2791,0.2825,0.2898,0.2915,0.2974,0.2954,0.3034,0.3083,0.3179,0.3256,0.33,0.3392,0.3428,0.3494,0.3503,0.3576,0.3589,0.3592,0.3585,0.3257,0.3229,0.3454,0.3436,0.3604,0.3604,0.3603,0.3603,0,0.2768,0.2835,0.2882,0.2952,0.2981,0.2989,0.3071,0.3121,0.3223,0.3339,0.3369,0.3479,0.3555,0.3581,0.3639,0.3636,0.3669,0.3678,0.3297,0.3248,0.3616,0.3607,0.3709,0.371,0.3711,0.3711,0.3712,0,0.2763,0.2802,0.2882,0.2912,0.2954,0.3006,0.3047,0.3142,0.3216,0.3399,0.3453,0.3569,0.3628,0.3714,0.3607,0.3585,0.3713,0.3357,0.327,0.3651,0.3634,0.3624,0.3615,0.2862,0.2855,0.285,0.2846,0,0.2742,0.2774,0.2804,0.2885,0.2939,0.2987,0.3069,0.3158,0.3269,0.3364,0.3493,0.3546,0.3592,0.3392,0.3382,0.3332,0.3326,0.3259,0.3728,0.2928,0.2867,0.2846,0.2861,0.2798,0.2803,0.2806,0.2809,0.2811,0.2701,0.2712,0.2765,0.282,0.2878,0.2926,0.2952,0.2951,0.3012,0.3011,0.3276,0.3183,0.3233,0.2969,0.2906,0.2843,0.3084,0.2996,0.3004,0.302,0.2948,0.2896,0.2817,0.2822,0.2826,0.2829,0.2833,0,0.2586,0.2652,0.2697,0.2746,0.2698,0.2828,0.2922,0.2791,0.2684,0.2704,0.2677,0.2463,0.2353,0.2446,0.2234,0.2308,0.2181,0.2298,0.2087,0.2137,0.2181,0.2058,0.1695,0.1692,0.1689,0.1686,0,0,0.2538,0.2511,0.2536,0.25,0.2574,0.2452,0.2476,0.2283,0.2196,0.1966,0.1893,0.1993,0.2277,0.1866,0.188,0.1766,0.1917,0.169,0.2592,0.2383,0.2423,0.2574,0.2444,0,0,0,0,0]},{"header":{"parameterUnit":"m.s-1","parameterCategory":2,"la1":30.2991,"la2":30.254,"lo1":-89.0895,"lo2":-89.0444,"dy":0.0017,"dx":0.0017,"nx":28,"ny":28,"refTime":"2025-03-18T09:00:00:Z","depth":"2","parameterNumber":3,"parameterNumberName":"V-component_of_CURRENTS"},"data":[0,0,0,0,0,0,0,0,0,0,0,0,0,0,0,0,0,0,0,0,0,0,0,0,0,0,0,0,0,0,0,0,0,0,0,0,0,0,0,0,0,0,0,0,0,0,0,0,0,0,0,0,0,0,0,0,0,0,-0.0412,-0.0413,0,-0.0488,-0.0489,-0.049,-0.0531,-0.0531,-0.0531,-0.0532,-0.0617,-0.0619,-0.0621,0,0,0,0,0,0,0,0,0,0,0,0,0,-0.0353,-0.0354,-0.0412,-0.0413,-0.0414,-0.0488,-0.0489,-0.049,-0.0531,-0.0531,-0.0531,-0.0532,-0.0616,-0.0619,-0.0621,0,0,0,0,0,0,0,0,0,0,0,0,0,-0.0397,-0.0354,-0.0411,-0.0444,-0.0448,-0.0488,-0.0489,-0.049,-0.0531,-0.0531,-0.0531,-0.0532,-0.0616,-0.0619,-0.0622,-0.0634,0,0,-0.0631,-0.0632,0,0,0,0,0,0,0,0,-0.0395,-0.0399,-0.0438,-0.0442,-0.0447,-0.0502,-0.05,-0.0539,-0.0531,-0.0498,-0.0532,-0.0532,-0.058,-0.0586,-0.0597,-0.0638,-0.0641,-0.0631,-0.0633,-0.0635,-0.0635,0,0,0,0,0,0,0,-0.0391,-0.0396,-0.044,-0.044,-0.0445,-0.0473,-0.0479,-0.0508,-0.0535,-0.0501,-0.0504,-0.0515,-0.0582,-0.0594,-0.06,-0.0643,-0.0631,-0.0634,-0.0636,-0.0637,-0.0627,-0.0625,0,0,0,0,0,0,-0.0382,-0.0393,-0.0438,-0.0443,-0.0423,-0.0474,-0.0481,-0.0482,-0.0535,-0.0543,-0.0515,-0.0517,-0.0589,-0.0596,-0.0603,-0.0585,-0.0635,-0.0637,-0.0639,-0.0629,-0.0627,-0.0625,0,0,0,0,0,0,-0.038,-0.0385,-0.0435,-0.0422,-0.043,-0.0474,-0.0476,-0.0484,-0.05,-0.0545,-0.0554,-0.0523,-0.0589,-0.0599,-0.0596,-0.059,-0.0639,-0.0642,-0.0632,-0.0629,-0.0626,-0.0573,0,0,0,0,0,0,-0.0378,-0.0383,-0.0379,-0.0421,-0.0431,-0.045,-0.0476,-0.0485,-0.0506,-0.051,-0.0556,-0.0564,-0.059,-0.059,-0.0599,-0.0595,-0.0644,-0.0635,-0.063,-0.0627,-0.0577,-0.0568,-0.056,0,0,0,0,0,-0.0376,-0.0364,-0.0378,-0.0384,-0.0424,-0.045,-0.0457,-0.0489,-0.0506,-0.0506,-0.0516,-0.0563,-0.0571,-0.0591,-0.0601,-0.0599,-0.0637,-0.0632,-0.0627,-0.0581,-0.057,-0.0561,0,0,0,0,0,0,-0.0336,-0.0368,-0.0385,-0.0384,-0.0413,-0.0457,-0.0462,-0.0488,-0.0499,-0.0499,-0.054,-0.0547,-0.055,-0.0566,-0.0587,-0.0578,-0.0611,-0.0608,-0.0572,-0.0562,-0.0554,-0.0527,-0.0647,0,0,0,0,0,-0.0326,-0.0324,-0.0365,-0.0364,-0.0377,-0.042,-0.0436,-0.0458,-0.0478,-0.0485,-0.0508,-0.0523,-0.0537,-0.0542,-0.056,-0.0554,-0.0579,-0.0554,-0.0545,-0.0538,-0.0519,-0.0537,-0.0529,-0.0609,-0.0609,-0.0609,0,0,-0.0311,-0.0328,-0.0329,-0.0355,-0.0381,-0.0371,-0.0429,-0.0448,-0.0433,-0.0492,-0.0469,-0.0505,-0.0529,-0.0521,-0.0523,-0.0535,-0.053,-0.0532,-0.0527,-0.0511,-0.0531,-0.0524,-0.0517,-0.0606,-0.0606,-0.0607,0,0,-0.0277,-0.0296,-0.0284,-0.0292,-0.0324,-0.0343,-0.0346,-0.0382,-0.0396,-0.0391,-0.0422,-0.0438,-0.0459,-0.0467,-0.0478,-0.0429,-0.0493,-0.0441,-0.0376,-0.0394,-0.0388,-0.0384,-0.0421,-0.042,-0.0429,-0.0428,-0.0428,0,-0.0259,-0.0248,-0.0285,-0.0266,-0.0256,-0.0321,-0.029,-0.0312,-0.0336,-0.0332,-0.0371,-0.0387,-0.0431,-0.0406,-0.0395,-0.0416,-0.0438,-0.0421,-0.0386,-0.0382,-0.0378,-0.0417,-0.0417,-0.0425,-0.0426,-0.0426,-0.0426,0,-0.0207,-0.0198,-0.019,-0.0175,-0.0163,-0.0159,-0.0177,-0.0184,-0.0215,-0.0228,-0.0231,-0.0284,-0.0289,-0.0316,-0.035,-0.0332,-0.0363,-0.0386,-0.0419,-0.0367,-0.0411,-0.0412,-0.0421,-0.0422,-0.0423,-0.0424,0,0,-0.0172,-0.0159,-0.0154,-0.0123,-0.0114,-0.0095,-0.0072,-0.0065,-0.0044,-0.0088,-0.0058,-0.0111,-0.0153,-0.0164,-0.0217,-0.0239,-0.0263,-0.0296,-0.0299,-0.0346,-0.0315,-0.0341,-0.0345,-0.0284,-0.0284,-0.0283,-0.0364,0,-0.0128,-0.0071,-0.0066,0.0012,0.0043,0.0026,0.0067,0.0077,0.005,0.0062,-0.0005,-0.0006,-0.0089,-0.0108,-0.0139,-0.0232,-0.0258,-0.024,-0.0345,-0.0348,-0.0389,-0.0344,-0.0314,-0.0383,-0.0365,-0.0365,-0.0365,0,-0.0071,-0.0042,0.0032,0.0108,0.0125,0.0166,0.0224,0.0254,0.0248,0.0219,0.0199,0.0147,0.0106,0.0018,-0.0095,-0.008,-0.0184,-0.0263,-0.0269,-0.0306,-0.0374,-0.0427,-0.0386,-0.0367,-0.0367,-0.0367,-0.0367,0,-0.0015,0.0042,0.0106,0.0133,0.0199,0.023,0.0269,0.0296,0.0324,0.0316,0.0323,0.0271,0.0232,0.0116,-0.006,-0.0078,-0.0193,-0.0241,-0.0356,-0.0361,-0.036,-0.0365,-0.0308,-0.0308,-0.0308,-0.0308,-0.0307,0,0.0042,0.0099,0.0126,0.0168,0.0259,0.0298,0.0378,0.0394,0.0416,0.0489,0.0411,0.0433,0.0253,0.0163,-0.0004,-0.0176,-0.0151,-0.0331,-0.0371,-0.0342,-0.0344,-0.0344,-0.0347,-0.0311,-0.031,-0.031,-0.0309,0,0.0101,0.0111,0.0195,0.0258,0.0284,0.0358,0.0436,0.0493,0.05,0.0583,0.0585,0.0538,0.0428,0.0242,0.0044,-0.0103,-0.0272,-0.0341,-0.0305,-0.0339,-0.0446,-0.0445,-0.0473,-0.0474,-0.0475,-0.0476,-0.0477,0,0.0135,0.0175,0.0262,0.032,0.0344,0.0427,0.0494,0.0522,0.0593,0.0662,0.0726,0.0641,0.0628,0.0325,0.005,-0.0223,-0.028,-0.0398,-0.0425,-0.042,-0.0457,-0.0455,-0.0452,-0.0417,-0.0417,-0.0417,-0.0418,0,0.0206,0.0229,0.0297,0.0401,0.0475,0.0574,0.0669,0.0729,0.0804,0.0871,0.0971,0.0963,0.0696,0.0442,0.0051,-0.0142,-0.0352,-0.0411,-0.0398,-0.0375,-0.0373,-0.0408,-0.0406,-0.0419,-0.0419,-0.0419,-0.0419,-0.0419,0.0266,0.0321,0.0401,0.0511,0.0607,0.0742,0.0843,0.0962,0.1095,0.1251,0.1176,0.1181,0.0845,0.0382,0.0034,-0.0342,-0.0337,-0.0485,-0.0482,-0.0479,-0.0453,-0.0452,-0.051,-0.0511,-0.0511,-0.0511,-0.0512,0,0.0372,0.0412,0.0515,0.0652,0.0801,0.0809,0.099,0.1131,0.134,0.1415,0.148,0.1193,0.085,0.0455,-0.0081,-0.0408,-0.0427,-0.0536,-0.049,-0.0486,-0.0483,-0.0456,-0.0516,-0.0516,-0.0517,-0.0518,0,0,0.0427,0.0549,0.0598,0.0823,0.091,0.1126,0.1248,0.1444,0.1564,0.1694,0.1655,0.15,0.0996,0.0602,0.0134,-0.0182,-0.025,-0.0247,-0.021,-0.0097,-0.009,-0.0427,-0.0378,0,0,0,0,0]}],[{"header":{"parameterUnit":"m.s-1","parameterCategory":2,"la1":30.2991,"la2":30.254,"lo1":-89.0895,"lo2":-89.0444,"dy":0.0017,"dx":0.0017,"nx":28,"ny":28,"refTime":"2025-03-18T09:00:00:Z","depth":"4","parameterNumber":2,"parameterNumberName":"U-component_of_CURRENTS"},"data":[0,0,0,0,0,0,0,0,0,0,0,0,0,0,0,0,0,0,0,0,0,0,0,0,0,0,0,0,0,0,0,0,0,0,0,0,0,0,0,0,0,0,0,0,0,0,0,0,0,0,0,0,0,0,0,0,0,0,0.1129,0.1129,0,0.115,0.115,0.115,0.1186,0.1186,0.1187,0.1188,0.1234,0.1235,0.1235,0,0,0,0,0,0,0,0,0,0,0,0,0,0.1061,0.1063,0.1129,0.1129,0.1129,0.1149,0.115,0.115,0.1185,0.1186,0.1187,0.1188,0.1234,0.1235,0.1235,0,0,0,0,0,0,0,0,0,0,0,0,0,0.1086,0.1063,0.1129,0.115,0.1153,0.1149,0.115,0.115,0.1185,0.1186,0.1188,0.1189,0.1234,0.1235,0.1235,0.1217,0,0,0.1238,0.1238,0,0,0,0,0,0,0,0,0.1085,0.1089,0.1147,0.1149,0.1151,0.1167,0.1143,0.1174,0.1185,0.1172,0.1188,0.1189,0.1214,0.1216,0.1216,0.122,0.1222,0.1238,0.1238,0.1239,0.1239,0,0,0,0,0,0,0,0.1083,0.1088,0.1136,0.1147,0.115,0.1139,0.1144,0.1149,0.1186,0.1173,0.1176,0.1179,0.1215,0.1215,0.1217,0.1222,0.1238,0.1239,0.1239,0.1239,0.1395,0.1398,0,0,0,0,0,0,0.1085,0.1086,0.1135,0.1137,0.1121,0.114,0.1145,0.116,0.1185,0.119,0.1178,0.1181,0.1213,0.1217,0.1219,0.135,0.1239,0.124,0.124,0.1391,0.1396,0.14,0,0,0,0,0,0,0.1083,0.1089,0.1134,0.1112,0.1117,0.114,0.1156,0.116,0.1185,0.1189,0.1195,0.1203,0.1214,0.1218,0.1293,0.1346,0.124,0.1241,0.1387,0.1393,0.1398,0.1514,0,0,0,0,0,0,0.1082,0.1089,0.1111,0.1113,0.1119,0.1133,0.1155,0.1159,0.1185,0.1189,0.1212,0.1216,0.1215,0.1293,0.1294,0.1345,0.1241,0.1382,0.139,0.1396,0.1506,0.1523,0.1538,0,0,0,0,0,0.1079,0.1103,0.1112,0.1119,0.1145,0.1133,0.1135,0.1154,0.1185,0.1184,0.1253,0.1217,0.1337,0.1297,0.1297,0.135,0.1379,0.1388,0.1396,0.1498,0.1519,0.1537,0,0,0,0,0,0,0.1085,0.1109,0.1119,0.115,0.1142,0.114,0.1162,0.1167,0.1216,0.125,0.126,0.1269,0.1346,0.1341,0.1296,0.142,0.1352,0.1361,0.143,0.145,0.1465,0.1455,0.1242,0,0,0,0,0,0.1095,0.1125,0.1124,0.1148,0.1157,0.1164,0.1171,0.1178,0.1214,0.1236,0.1264,0.1319,0.1374,0.1409,0.1431,0.1499,0.1476,0.1538,0.1554,0.1567,0.1564,0.1632,0.1653,0.1427,0.1427,0.1427,0,0,0.1103,0.1123,0.1139,0.1152,0.1166,0.1193,0.1173,0.1193,0.123,0.1234,0.1326,0.1359,0.1402,0.1487,0.1522,0.1497,0.1613,0.1577,0.1588,0.1577,0.1643,0.1664,0.1684,0.1432,0.1431,0.143,0,0,0.1119,0.1157,0.118,0.1197,0.1217,0.1224,0.1235,0.1252,0.1278,0.1366,0.1387,0.1464,0.1547,0.1582,0.1618,0.1734,0.1683,0.1749,0.1836,0.1904,0.1922,0.1938,0.1897,0.1909,0.1773,0.1773,0.1774,0,0.1127,0.1157,0.1178,0.1215,0.1248,0.125,0.1283,0.1311,0.1352,0.139,0.1421,0.1581,0.1598,0.1709,0.1764,0.1766,0.1769,0.1756,0.1922,0.1938,0.1952,0.1907,0.1918,0.178,0.1779,0.1779,0.1778,0,0.1164,0.1195,0.1218,0.128,0.1319,0.1339,0.1388,0.1425,0.1489,0.1525,0.1647,0.1709,0.181,0.183,0.1846,0.1958,0.191,0.1919,0.1865,0.1982,0.1926,0.1936,0.179,0.1787,0.1785,0.1784,0,0,0.1143,0.122,0.123,0.1269,0.1354,0.1384,0.1473,0.1527,0.1599,0.1688,0.1789,0.1912,0.1953,0.1994,0.2013,0.2073,0.2161,0.2059,0.206,0.2001,0.2253,0.2136,0.2133,0.2224,0.2228,0.223,0.2157,0,0.1147,0.1199,0.1265,0.1349,0.1378,0.1459,0.1555,0.1633,0.1704,0.18,0.1886,0.1989,0.2016,0.2079,0.2162,0.2152,0.2201,0.2175,0.2163,0.216,0.2031,0.2147,0.2242,0.2164,0.2166,0.2167,0.2168,0,0.1161,0.1183,0.1246,0.1375,0.1412,0.1488,0.1635,0.1724,0.1851,0.1916,0.2044,0.21,0.2204,0.2215,0.2306,0.2301,0.2299,0.2284,0.2282,0.2138,0.2064,0.2036,0.2184,0.2183,0.2182,0.2181,0.218,0,0.1108,0.1191,0.1235,0.128,0.1425,0.1497,0.1601,0.1749,0.1813,0.1969,0.2025,0.2187,0.2255,0.2325,0.2349,0.2341,0.2412,0.2387,0.2261,0.2247,0.2315,0.2299,0.2455,0.2455,0.2455,0.2456,0.2456,0,0.1088,0.1131,0.1207,0.1242,0.133,0.1486,0.1606,0.1719,0.1858,0.1949,0.2086,0.2157,0.2302,0.2364,0.2375,0.2354,0.2451,0.2277,0.2251,0.2358,0.2349,0.2317,0.2302,0.2453,0.2453,0.2454,0.2454,0,0.1045,0.1084,0.1146,0.1268,0.1302,0.1393,0.1559,0.164,0.179,0.1896,0.1944,0.2126,0.223,0.2315,0.2394,0.2352,0.2344,0.2309,0.2368,0.2344,0.2101,0.2093,0.2122,0.2118,0.2115,0.2112,0.211,0,0.1025,0.1037,0.1137,0.1165,0.1219,0.133,0.1404,0.1572,0.1643,0.1863,0.1901,0.2047,0.2161,0.2154,0.2279,0.2279,0.2273,0.2213,0.2204,0.211,0.2082,0.2079,0.2076,0.2104,0.2103,0.2102,0.2101,0,0.0982,0.1029,0.1083,0.111,0.1167,0.123,0.1342,0.1351,0.1574,0.1688,0.1806,0.1877,0.1989,0.2081,0.2115,0.212,0.2227,0.2176,0.2182,0.2173,0.2088,0.2063,0.2064,0.209,0.2091,0.2092,0.2093,0,0.0965,0.0981,0.1035,0.1067,0.1123,0.1139,0.1197,0.1287,0.1365,0.1594,0.1631,0.1817,0.1976,0.1998,0.2034,0.204,0.1997,0.191,0.1928,0.1943,0.1932,0.1801,0.1703,0,0,0,0,0,0.0933,0.0941,0.0977,0.1003,0.106,0.1078,0.1175,0.1241,0.1391,0.1427,0.1525,0.1633,0.1726,0.1821,0.1791,0.1943,0.1995,0.1897,0.1901,0.2023,0.2037,0.205,0,0,0,0,0,0,0.0911,0.0949,0.0952,0.0938,0.0941,0.0978,0.1028,0.1124,0.1155,0.1325,0.139,0.1518,0.1636,0.1729,0.1758,0.1782,0.1744,0.2003,0.1998,0.2016,0.2028,0.2039,0.2057,0,0,0,0,0]},{"header":{"parameterUnit":"m.s-1","parameterCategory":2,"la1":30.2991,"la2":30.254,"lo1":-89.0895,"lo2":-89.0444,"dy":0.0017,"dx":0.0017,"nx":28,"ny":28,"refTime":"2025-03-18T09:00:00:Z","depth":"4","parameterNumber":3,"parameterNumberName":"V-component_of_CURRENTS"},"data":[0,0,0,0,0,0,0,0,0,0,0,0,0,0,0,0,0,0,0,0,0,0,0,0,0,0,0,0,0,0,0,0,0,0,0,0,0,0,0,0,0,0,0,0,0,0,0,0,0,0,0,0,0,0,0,0,0,0,0.0214,0.0213,0,0.018,0.0179,0.0179,0.015,0.0149,0.0149,0.0148,0.0157,0.0158,0.0158,0,0,0,0,0,0,0,0,0,0,0,0,0,0.0266,0.0266,0.0214,0.0213,0.0212,0.018,0.0179,0.0179,0.015,0.0149,0.0149,0.0148,0.0157,0.0158,0.0159,0,0,0,0,0,0,0,0,0,0,0,0,0,0.0242,0.0265,0.0214,0.0192,0.0189,0.018,0.0179,0.0179,0.015,0.0149,0.0148,0.0148,0.0156,0.0158,0.0159,0.0184,0,0,0.0162,0.0163,0,0,0,0,0,0,0,0,0.0243,0.024,0.0196,0.0193,0.019,0.0166,0.0201,0.0182,0.015,0.0168,0.0148,0.0147,0.0163,0.0163,0.0162,0.0184,0.0185,0.0162,0.0163,0.0164,0.0164,0,0,0,0,0,0,0,0.0245,0.0241,0.0203,0.0195,0.0192,0.0188,0.0183,0.0197,0.0174,0.0167,0.0164,0.0155,0.0162,0.0161,0.0162,0.0185,0.0162,0.0163,0.0164,0.0165,0.0146,0.0145,0,0,0,0,0,0,0.0243,0.0243,0.0204,0.0202,0.0212,0.0187,0.0182,0.0177,0.0173,0.017,0.0156,0.0154,0.016,0.0161,0.0163,0.0184,0.0164,0.0165,0.0165,0.0147,0.0146,0.0144,0,0,0,0,0,0,0.0245,0.024,0.0206,0.0219,0.0214,0.0187,0.0181,0.0177,0.0174,0.0164,0.0162,0.0157,0.0159,0.0161,0.0155,0.0184,0.0165,0.0166,0.0149,0.0147,0.0145,0.0231,0,0,0,0,0,0,0.0247,0.0241,0.0243,0.0219,0.0213,0.0218,0.0181,0.0176,0.0169,0.0166,0.0165,0.0164,0.0158,0.0153,0.0156,0.0185,0.0167,0.015,0.0148,0.0146,0.023,0.0233,0.0235,0,0,0,0,0,0.0249,0.0254,0.0244,0.0239,0.0215,0.0219,0.0217,0.0196,0.017,0.0186,0.0155,0.0164,0.014,0.0154,0.0158,0.0188,0.0151,0.0148,0.0146,0.0229,0.0232,0.0235,0,0,0,0,0,0,0.0282,0.0251,0.0239,0.0236,0.0235,0.0213,0.0216,0.02,0.0189,0.0176,0.0161,0.016,0.0162,0.0149,0.0163,0.0165,0.0143,0.0141,0.0205,0.0208,0.0211,0.0215,0.0168,0,0,0,0,0,0.0289,0.0286,0.0264,0.0268,0.0262,0.024,0.0237,0.0224,0.0206,0.02,0.0193,0.0169,0.0155,0.016,0.0147,0.0165,0.0129,0.0175,0.0178,0.0181,0.018,0.0122,0.012,0.0136,0.0136,0.0136,0,0,0.0305,0.0287,0.0286,0.0275,0.0265,0.027,0.0237,0.0236,0.0244,0.0204,0.0211,0.0184,0.0155,0.0162,0.0163,0.016,0.0159,0.0177,0.0181,0.0178,0.0119,0.0118,0.0117,0.0134,0.0134,0.0134,0,0,0.0338,0.0316,0.0326,0.0323,0.0309,0.0296,0.0297,0.0279,0.0275,0.0275,0.0234,0.0214,0.0211,0.0193,0.0181,0.0187,0.0168,0.0184,0.0222,0.0166,0.0165,0.0164,0.0138,0.0134,0.0195,0.0195,0.0195,0,0.036,0.0368,0.0336,0.0343,0.034,0.0309,0.0324,0.032,0.0305,0.0301,0.0284,0.0233,0.0223,0.0212,0.0212,0.02,0.0167,0.0227,0.0174,0.0171,0.0169,0.0142,0.0136,0.0199,0.0198,0.0198,0.0197,0,0.0394,0.0407,0.0413,0.0408,0.0401,0.0415,0.0391,0.0396,0.0376,0.036,0.0341,0.0304,0.027,0.0269,0.0252,0.0231,0.0214,0.0183,0.0179,0.0173,0.0144,0.0137,0.0204,0.0203,0.0202,0.0201,0,0,0.0438,0.0441,0.0445,0.0459,0.0436,0.0439,0.0444,0.0445,0.0448,0.0422,0.0417,0.0384,0.0345,0.0325,0.0295,0.026,0.0231,0.0225,0.022,0.0223,0.0124,0.0117,0.0108,0.0191,0.0189,0.0188,0.0122,0,0.0488,0.0528,0.0501,0.054,0.0559,0.0522,0.0527,0.0512,0.0498,0.049,0.0434,0.0416,0.0372,0.0361,0.0313,0.025,0.021,0.0253,0.0107,0.0104,0.0117,0.0098,0.0183,0.0116,0.0114,0.0113,0.0112,0,0.053,0.0557,0.0607,0.0613,0.0612,0.0629,0.0623,0.0615,0.0582,0.0573,0.0527,0.0472,0.0423,0.0378,0.0255,0.0283,0.0207,0.0153,0.0149,0.0104,0.0081,0.0111,0.0097,0.0098,0.0099,0.01,0.0101,0,0.0583,0.0623,0.0672,0.0676,0.0677,0.0696,0.0685,0.0654,0.0659,0.0625,0.0628,0.0529,0.0497,0.0375,0.0253,0.0252,0.0112,0.0093,0.001,0.001,0.0004,0.0005,-0.0012,-0.0012,-0.0012,-0.0012,-0.0012,0,0.0635,0.0676,0.0719,0.0744,0.08,0.0755,0.0795,0.0774,0.0754,0.0757,0.0671,0.0655,0.0491,0.0386,0.0264,0.0117,0.0109,0.0012,-0.0016,0.0042,0.0049,-0.0,0.0002,-0.0015,-0.0014,-0.0013,-0.0013,0,0.0675,0.0705,0.0766,0.0806,0.0831,0.0858,0.0883,0.0903,0.0875,0.0879,0.087,0.0757,0.0612,0.0443,0.0252,0.0148,0.0003,-0.0053,0.0043,0.0021,-0.006,-0.0053,-0.0141,-0.0142,-0.0143,-0.0144,-0.0145,0,0.0698,0.0741,0.0818,0.0868,0.0902,0.0956,0.0991,0.0979,0.0996,0.0937,0.0938,0.0806,0.0709,0.0443,0.0256,0.0014,-0.0028,-0.0092,-0.0098,-0.0058,-0.0077,-0.0069,-0.0061,-0.0146,-0.0146,-0.0146,-0.0147,0,0.0739,0.0771,0.0814,0.0923,0.0998,0.1065,0.1114,0.1142,0.1101,0.1094,0.0994,0.0835,0.0667,0.044,0.0248,0.0072,-0.0042,-0.0101,-0.0101,-0.0107,-0.0065,-0.0081,-0.0072,-0.015,-0.0149,-0.0149,-0.0149,0,0.0766,0.0805,0.087,0.0959,0.1053,0.113,0.1161,0.1169,0.117,0.1095,0.106,0.0861,0.074,0.0469,0.0293,0.0117,0.0071,0.0023,0.0016,0.0017,0.0073,0.0151,0.0105,0,0,0,0,0,0.0785,0.0824,0.0902,0.0996,0.1086,0.1147,0.1212,0.1228,0.1213,0.1151,0.1101,0.0932,0.0644,0.0517,0.0339,0.028,0.0049,0.0067,-0.0006,-0.0166,-0.0163,-0.0127,0,0,0,0,0,0,0.0798,0.0865,0.0895,0.1007,0.108,0.1185,0.1233,0.1234,0.119,0.1142,0.0989,0.0896,0.0618,0.0745,0.0337,0.0283,0.0214,-0.0071,-0.0074,-0.0168,-0.0165,-0.0162,-0.0124,0,0,0,0,0]}]]